Location: Newark
(44.6028°N, 124.0883°W)
Time: 23:43:39
(UTC+00:00)

N. Korean satellite - Pass Details

Date: 27 October 2020
Orbit: 452 x 504 km, 97.2° (Epoch: 24 November)

Event Time Altitude Azimuth Distance (km) Brightness Sun altitude
Rises 13:15:24 0° 23° (NNE) 2,479 10.4 -17.1°
Reaches altitude 10° 13:17:39 10° 35° (NE) 1,597 9.6 -16.7°
Maximum altitude 13:20:39 28° 96° (E) 882 8.7 -16.1°
Drops below altitude 10° 13:23:37 10° 158° (SSE) 1,584 9.5 -15.6°
Sets 13:25:50 0° 170° (S) 2,454 10.3 -15.2°
